| time (UTC) | temp F | wind direction | speed MPH | gust MPH | rain 1hr in | rain 24hr in | rain mn in | humidity % | barometer mb |
| 20260510230507 | 84 | 84 | 4.0 | 9.0 | 0.00 | 0.06 | 0.00 | 67 | 1015.7 |
| 20260510230009 | 84 | 71 | 4.0 | 11.0 | 0.00 | 0.06 | 0.00 | 68 | 1015.7 |
| 20260510225506 | 84 | 42 | 3.0 | 11.0 | 0.00 | 0.06 | 0.00 | 67 | 1015.7 |
| 20260510225006 | 84 | 50 | 4.0 | 9.0 | 0.00 | 0.06 | 0.00 | 67 | 1015.6 |
| 20260510224506 | 84 | 98 | 0.0 | 12.0 | 0.00 | 0.06 | 0.00 | 67 | 1015.5 |
| 20260510224005 | 85 | 92 | 7.0 | 12.0 | 0.00 | 0.06 | 0.00 | 67 | 1015.6 |
| 20260510223505 | 85 | 86 | 5.0 | 12.0 | 0.00 | 0.06 | 0.00 | 66 | 1015.5 |
| 20260510223005 | 86 | 69 | 6.0 | 11.0 | 0.00 | 0.06 | 0.00 | 66 | 1015.5 |
| 20260510222505 | 86 | 90 | 4.0 | 12.0 | 0.00 | 0.06 | 0.00 | 65 | 1015.5 |
| 20260510222006 | 87 | 55 | 7.0 | 15.0 | 0.00 | 0.06 | 0.00 | 63 | 1015.5 |
| 20260510221505 | 89 | 58 | 5.0 | 12.0 | 0.00 | 0.06 | 0.00 | 59 | 1015.5 |
| 20260510221006 | 89 | 52 | 3.0 | 8.0 | 0.00 | 0.06 | 0.00 | 59 | 1015.4 |
| 20260510220505 | 88 | 30 | 2.0 | 8.0 | 0.00 | 0.06 | 0.00 | 63 | 1015.4 |
| 20260510220005 | 88 | 30 | 4.0 | 9.0 | 0.00 | 0.06 | 0.00 | 60 | 1015.3 |
| 20260510215507 | 88 | 318 | 3.0 | 11.0 | 0.00 | 0.06 | 0.00 | 60 | 1015.3 |
| 20260510215004 | 88 | 333 | 5.0 | 12.0 | 0.00 | 0.06 | 0.00 | 59 | 1015.3 |
| 20260510214504 | 88 | 325 | 3.0 | 12.0 | 0.00 | 0.06 | 0.00 | 61 | 1015.3 |
| 20260510214004 | 88 | 323 | 4.0 | 10.0 | 0.00 | 0.06 | 0.00 | 62 | 1015.3 |
| 20260510213504 | 88 | 343 | 4.0 | 9.0 | 0.00 | 0.06 | 0.00 | 62 | 1015.3 |
| 20260510213005 | 88 | 5 | 3.0 | 9.0 | 0.00 | 0.06 | 0.00 | 65 | 1015.3 |
| 20260510212504 | 88 | 15 | 4.0 | 11.0 | 0.00 | 0.06 | 0.00 | 62 | 1015.2 |
| 20260510212003 | 88 | 337 | 4.0 | 11.0 | 0.00 | 0.06 | 0.00 | 61 | 1015.2 |
| 20260510211503 | 87 | 37 | 4.0 | 13.0 | 0.00 | 0.06 | 0.00 | 62 | 1015.1 |
| 20260510211003 | 87 | 349 | 4.0 | 13.0 | 0.00 | 0.06 | 0.00 | 61 | 1015.2 |
| 20260510210502 | 87 | 311 | 6.0 | 11.0 | 0.00 | 0.06 | 0.00 | 60 | 1015.2 |
| 20260510210002 | 87 | 21 | 4.0 | 12.0 | 0.00 | 0.06 | 0.00 | 61 | 1015.3 |
| 20260510205503 | 87 | 15 | 5.0 | 14.0 | 0.00 | 0.06 | 0.00 | 61 | 1015.4 |
| 20260510205002 | 87 | 330 | 7.0 | 15.0 | 0.00 | 0.06 | 0.00 | 59 | 1015.5 |
| 20260510204504 | 88 | 343 | 9.0 | 15.0 | 0.00 | 0.06 | 0.00 | 58 | 1015.4 |
| 20260510204002 | 89 | 15 | 5.0 | 13.0 | 0.00 | 0.06 | 0.00 | 57 | 1015.4 |
| 20260510203501 | 89 | 296 | 6.0 | 15.0 | 0.00 | 0.06 | 0.00 | 56 | 1015.5 |
| 20260510203003 | 90 | 330 | 7.0 | 15.0 | 0.00 | 0.06 | 0.00 | 56 | 1015.4 |
| 20260510202501 | 90 | 15 | 6.0 | 13.0 | 0.00 | 0.06 | 0.00 | 57 | 1015.4 |
| 20260510202000 | 90 | 10 | 7.0 | 14.0 | 0.00 | 0.06 | 0.00 | 57 | 1015.4 |
| 20260510201601 | 90 | 327 | 7.0 | 14.0 | 0.00 | 0.06 | 0.00 | 57 | 1015.3 |
| 20260510201100 | 91 | 332 | 4.0 | 13.0 | 0.00 | 0.06 | 0.00 | 60 | 1015.2 |
| 20260510200601 | 91 | 41 | 4.0 | 10.0 | 0.00 | 0.06 | 0.00 | 56 | 1015.0 |
| 20260510200100 | 91 | 241 | 3.0 | 9.0 | 0.00 | 0.06 | 0.00 | 53 | 1014.9 |
| 20260510195559 | 92 | 308 | 3.0 | 9.0 | 0.00 | 0.06 | 0.00 | 53 | 1014.8 |
| 20260510195059 | 91 | 306 | 1.0 | 9.0 | 0.00 | 0.06 | 0.00 | 52 | 1014.8 |
| 20260510194559 | 92 | 10 | 3.0 | 9.0 | 0.00 | 0.06 | 0.00 | 51 | 1014.9 |
| 20260510194059 | 92 | 246 | 0.0 | 7.0 | 0.00 | 0.06 | 0.00 | 52 | 1014.8 |
| 20260510193559 | 92 | 181 | 3.0 | 9.0 | 0.00 | 0.06 | 0.00 | 51 | 1014.9 |
| 20260510193059 | 92 | 300 | 3.0 | 9.0 | 0.00 | 0.06 | 0.00 | 52 | 1015.0 |
| 20260510192558 | 92 | 260 | 1.0 | 9.0 | 0.00 | 0.06 | 0.00 | 54 | 1015.1 |
| 20260510192057 | 92 | 237 | 3.0 | 9.0 | 0.00 | 0.06 | 0.00 | 51 | 1015.2 |
| 20260510191557 | 93 | 197 | 3.0 | 8.0 | 0.00 | 0.06 | 0.00 | 54 | 1015.3 |
| 20260510191058 | 92 | 277 | 2.0 | 9.0 | 0.00 | 0.06 | 0.00 | 50 | 1015.3 |
| 20260510190557 | 91 | 283 | 2.0 | 9.0 | 0.00 | 0.06 | 0.00 | 54 | 1015.4 |
| 20260510190103 | 91 | 201 | 2.0 | 9.0 | 0.00 | 0.06 | 0.00 | 52 | 1015.3 |
| 20260510185556 | 92 | 175 | 4.0 | 10.0 | 0.00 | 0.06 | 0.00 | 51 | 1015.3 |
| 20260510185055 | 92 | 218 | 4.0 | 10.0 | 0.00 | 0.06 | 0.00 | 50 | 1015.5 |
| 20260510184617 | 92 | 190 | 3.0 | 7.0 | 0.00 | 0.06 | 0.00 | 52 | 1015.5 |
| 20260510184055 | 92 | 188 | 3.0 | 8.0 | 0.00 | 0.06 | 0.00 | 50 | 1015.6 |
| 20260510183554 | 93 | 15 | 1.0 | 9.0 | 0.00 | 0.06 | 0.00 | 54 | 1015.6 |
| 20260510183055 | 93 | 297 | 3.0 | 9.0 | 0.00 | 0.06 | 0.00 | 52 | 1015.6 |
| 20260510182555 | 92 | 296 | 3.0 | 9.0 | 0.00 | 0.06 | 0.00 | 52 | 1015.7 |
| 20260510182053 | 92 | 330 | 1.0 | 11.0 | 0.00 | 0.06 | 0.00 | 52 | 1015.7 |
| 20260510181600 | 92 | 203 | 6.0 | 11.0 | 0.00 | 0.06 | 0.00 | 54 | 1015.7 |
| 20260510181054 | 92 | 179 | 4.0 | 9.0 | 0.00 | 0.06 | 0.00 | 52 | 1015.7 |
| 20260510180554 | 92 | 113 | 0.0 | 9.0 | 0.00 | 0.06 | 0.00 | 56 | 1015.8 |
| 20260510180108 | 92 | 350 | 2.0 | 9.0 | 0.00 | 0.06 | 0.00 | 55 | 1016.0 |
| 20260510175552 | 92 | 198 | 5.0 | 9.0 | 0.00 | 0.06 | 0.00 | 54 | 1016.0 |
| 20260510175051 | 92 | 258 | 2.0 | 7.0 | 0.00 | 0.06 | 0.00 | 55 | 1016.0 |
| 20260510174552 | 91 | 166 | 2.0 | 9.0 | 0.00 | 0.06 | 0.00 | 56 | 1016.0 |
| 20260510174050 | 91 | 269 | 2.0 | 6.0 | 0.00 | 0.06 | 0.00 | 58 | 1016.1 |
| 20260510173548 | 91 | 223 | 0.0 | 7.0 | 0.00 | 0.06 | 0.00 | 51 | 1016.2 |
| 20260510173049 | 91 | 237 | 2.0 | 7.0 | 0.00 | 0.06 | 0.00 | 58 | 1016.2 |
| 20260510172547 | 92 | 229 | 2.0 | 6.0 | 0.00 | 0.06 | 0.00 | 53 | 1016.2 |
| 20260510172046 | 91 | 38 | 0.0 | 5.0 | 0.00 | 0.06 | 0.00 | 54 | 1016.3 |
| 20260510171559 | 91 | 215 | 1.0 | 10.0 | 0.00 | 0.06 | 0.00 | 52 | 1016.3 |
| 20260510171045 | 91 | 305 | 2.0 | 10.0 | 0.00 | 0.06 | 0.00 | 54 | 1016.5 |
| 20260510170546 | 90 | 237 | 2.0 | 6.0 | 0.00 | 0.06 | 0.00 | 55 | 1016.5 |
| 20260510170044 | 90 | 206 | 1.0 | 10.0 | 0.00 | 0.06 | 0.00 | 60 | 1016.6 |
| 20260510165543 | 90 | 203 | 5.0 | 9.0 | 0.00 | 0.06 | 0.00 | 58 | 1016.7 |
| 20260510165042 | 89 | 156 | 6.0 | 9.0 | 0.00 | 0.06 | 0.00 | 56 | 1016.7 |
| 20260510164541 | 90 | 216 | 4.0 | 9.0 | 0.00 | 0.06 | 0.00 | 57 | 1016.7 |
| 20260510164042 | 89 | 200 | 2.0 | 10.0 | 0.00 | 0.06 | 0.00 | 56 | 1016.9 |
| 20260510163541 | 89 | 170 | 7.0 | 11.0 | 0.00 | 0.06 | 0.00 | 55 | 1016.9 |
| 20260510163040 | 89 | 184 | 4.0 | 10.0 | 0.00 | 0.06 | 0.00 | 58 | 1016.9 |
| 20260510162539 | 90 | 205 | 2.0 | 7.0 | 0.00 | 0.06 | 0.00 | 56 | 1017.0 |
| 20260510162039 | 89 | 186 | 4.0 | 8.0 | 0.00 | 0.06 | 0.00 | 56 | 1017.0 |
| 20260510161539 | 88 | 264 | 4.0 | 10.0 | 0.00 | 0.06 | 0.00 | 58 | 1017.0 |
| 20260510161039 | 89 | 342 | 3.0 | 10.0 | 0.00 | 0.06 | 0.00 | 58 | 1017.0 |
| 20260510160538 | 89 | 356 | 3.0 | 9.0 | 0.00 | 0.06 | 0.00 | 56 | 1017.1 |
| 20260510160044 | 89 | 255 | 2.0 | 9.0 | 0.00 | 0.06 | 0.00 | 60 | 1017.1 |
| 20260510155537 | 88 | 251 | 3.0 | 8.0 | 0.00 | 0.06 | 0.00 | 61 | 1017.0 |
| 20260510155036 | 87 | 208 | 5.0 | 8.0 | 0.00 | 0.06 | 0.00 | 61 | 1017.1 |
| 20260510154553 | 87 | 285 | 3.0 | 6.0 | 0.00 | 0.06 | 0.00 | 60 | 1017.1 |
| 20260510154034 | 87 | 225 | 2.0 | 9.0 | 0.00 | 0.06 | 0.00 | 62 | 1017.1 |
| 20260510153534 | 88 | 317 | 3.0 | 9.0 | 0.00 | 0.06 | 0.00 | 63 | 1017.2 |
| 20260510153046 | 87 | 161 | 2.0 | 9.0 | 0.00 | 0.06 | 0.00 | 63 | 1017.2 |
| 20260510152533 | 88 | 170 | 5.0 | 9.0 | 0.00 | 0.06 | 0.00 | 62 | 1017.2 |
| 20260510152031 | 87 | 268 | 3.0 | 9.0 | 0.00 | 0.06 | 0.00 | 65 | 1017.2 |
| 20260510151531 | 87 | 207 | 4.0 | 9.0 | 0.00 | 0.06 | 0.00 | 65 | 1017.1 |
| 20260510151030 | 87 | 208 | 5.0 | 9.0 | 0.00 | 0.06 | 0.00 | 65 | 1017.0 |
| 20260510150530 | 86 | 231 | 3.0 | 8.0 | 0.00 | 0.06 | 0.00 | 66 | 1017.0 |
| 20260510150028 | 86 | 219 | 4.0 | 11.0 | 0.00 | 0.06 | 0.00 | 67 | 1016.9 |
| 20260510145527 | 86 | 194 | 6.0 | 11.0 | 0.00 | 0.06 | 0.00 | 67 | 1017.0 |
| 20260510145026 | 85 | 208 | 3.0 | 7.0 | 0.00 | 0.06 | 0.00 | 69 | 1016.9 |
| 20260510144544 | 85 | 193 | 3.0 | 6.0 | 0.00 | 0.06 | 0.00 | 69 | 1016.9 |
| 20260510144026 | 84 | 171 | 3.0 | 5.0 | 0.00 | 0.06 | 0.00 | 71 | 1016.8 |
| 20260510143523 | 84 | 193 | 1.0 | 5.0 | 0.00 | 0.06 | 0.00 | 73 | 1016.8 |
| 20260510143021 | 83 | 210 | 2.0 | 7.0 | 0.00 | 0.06 | 0.00 | 72 | 1016.8 |
| 20260510142526 | 83 | 183 | 1.0 | 9.0 | 0.00 | 0.06 | 0.00 | 74 | 1016.9 |
| 20260510142020 | 83 | 215 | 2.0 | 9.0 | 0.00 | 0.06 | 0.00 | 73 | 1016.9 |
| 20260510141520 | 83 | 198 | 2.0 | 5.0 | 0.00 | 0.06 | 0.00 | 75 | 1016.9 |
| 20260510141019 | 82 | 235 | 1.0 | 4.0 | 0.00 | 0.06 | 0.00 | 77 | 1016.9 |
| 20260510140519 | 82 | 224 | 0.0 | 4.0 | 0.00 | 0.06 | 0.00 | 78 | 1016.9 |
| 20260510140018 | 82 | 221 | 0.0 | 7.0 | 0.00 | 0.06 | 0.00 | 76 | 1016.9 |
| 20260510135517 | 82 | 266 | 1.0 | 7.0 | 0.00 | 0.06 | 0.00 | 78 | 1016.8 |
| 20260510135016 | 82 | 258 | 1.0 | 4.0 | 0.00 | 0.06 | 0.00 | 79 | 1016.8 |
| 20260510134515 | 81 | 262 | 1.0 | 4.0 | 0.00 | 0.06 | 0.00 | 79 | 1016.6 |
| 20260510134015 | 81 | 186 | 1.0 | 3.0 | 0.00 | 0.06 | 0.00 | 80 | 1016.7 |
| 20260510133512 | 81 | 175 | 0.0 | 4.0 | 0.00 | 0.06 | 0.00 | 81 | 1016.5 |
| 20260510133012 | 81 | 206 | 1.0 | 4.0 | 0.00 | 0.06 | 0.00 | 82 | 1016.6 |
| 20260510132512 | 80 | 189 | 1.0 | 4.0 | 0.00 | 0.06 | 0.00 | 81 | 1016.5 |
| 20260510132013 | 80 | 194 | 1.0 | 4.0 | 0.00 | 0.06 | 0.00 | 82 | 1016.5 |
| 20260510131510 | 80 | 194 | 2.0 | 5.0 | 0.00 | 0.06 | 0.00 | 82 | 1016.5 |
| 20260510131013 | 80 | 210 | 2.0 | 6.0 | 0.00 | 0.06 | 0.00 | 83 | 1016.5 |
| 20260510130508 | 79 | 235 | 2.0 | 6.0 | 0.00 | 0.06 | 0.00 | 83 | 1016.4 |
| 20260510130007 | 79 | 188 | 3.0 | 8.0 | 0.00 | 0.06 | 0.00 | 85 | 1016.5 |
| 20260510125507 | 79 | 196 | 4.0 | 8.0 | 0.00 | 0.06 | 0.00 | 86 | 1016.5 |
| 20260510125005 | 78 | 185 | 4.0 | 7.0 | 0.00 | 0.06 | 0.00 | 88 | 1016.4 |
| 20260510124504 | 78 | 185 | 4.0 | 7.0 | 0.00 | 0.06 | 0.00 | 89 | 1016.4 |
| 20260510124003 | 78 | 237 | 1.0 | 4.0 | 0.00 | 0.06 | 0.00 | 89 | 1016.3 |
| 20260510123502 | 77 | 210 | 1.0 | 4.0 | 0.00 | 0.06 | 0.00 | 90 | 1016.3 |
| 20260510123002 | 77 | 188 | 1.0 | 4.0 | 0.00 | 0.06 | 0.00 | 90 | 1016.3 |
| 20260510122559 | 77 | 185 | 1.0 | 4.0 | 0.00 | 0.06 | 0.00 | 90 | 1016.3 |
| 20260510122059 | 77 | 198 | 1.0 | 5.0 | 0.00 | 0.06 | 0.00 | 90 | 1016.1 |
| 20260510121600 | 76 | 189 | 1.0 | 5.0 | 0.00 | 0.06 | 0.00 | 91 | 1016.0 |
| 20260510121057 | 76 | 189 | 2.0 | 6.0 | 0.00 | 0.06 | 0.00 | 91 | 1015.9 |
| 20260510120557 | 76 | 183 | 1.0 | 4.0 | 0.00 | 0.06 | 0.00 | 91 | 1016.0 |
| 20260510120056 | 76 | 196 | 1.0 | 4.0 | 0.00 | 0.06 | 0.00 | 91 | 1016.0 |
| 20260510115555 | 76 | 195 | 1.0 | 4.0 | 0.00 | 0.06 | 0.00 | 91 | 1015.9 |
| 20260510115054 | 76 | 206 | 2.0 | 4.0 | 0.00 | 0.06 | 0.00 | 91 | 1015.9 |
| 20260510114554 | 75 | 204 | 1.0 | 3.0 | 0.00 | 0.06 | 0.00 | 91 | 1015.8 |
| 20260510114051 | 75 | 204 | 1.0 | 3.0 | 0.00 | 0.06 | 0.00 | 91 | 1015.7 |
| 20260510113550 | 75 | 204 | 0.0 | 2.0 | 0.00 | 0.06 | 0.00 | 91 | 1015.7 |
| 20260510113050 | 75 | 204 | 0.0 | 0.0 | 0.00 | 0.06 | 0.00 | 91 | 1015.6 |
| 20260510112550 | 75 | 204 | 0.0 | 2.0 | 0.00 | 0.06 | 0.00 | 91 | 1015.5 |
| 20260510112049 | 75 | 204 | 0.0 | 2.0 | 0.00 | 0.06 | 0.00 | 91 | 1015.4 |
| 20260510111551 | 75 | 204 | 0.0 | 2.0 | 0.00 | 0.06 | 0.00 | 91 | 1015.3 |
| 20260510111048 | 74 | 204 | 0.0 | 1.0 | 0.00 | 0.06 | 0.00 | 91 | 1015.2 |
| 20260510110550 | 74 | 204 | 0.0 | 3.0 | 0.00 | 0.06 | 0.00 | 91 | 1015.1 |
| 20260510110052 | 75 | 204 | 0.0 | 0.0 | 0.00 | 0.06 | 0.00 | 91 | 1015.1 |
| 20260510105547 | 74 | 61 | 0.0 | 0.0 | 0.00 | 0.06 | 0.00 | 91 | 1015.1 |
| 20260510105047 | 73 | 61 | 0.0 | 0.0 | 0.00 | 0.06 | 0.00 | 91 | 1015.1 |
| 20260510104556 | 73 | 61 | 0.0 | 0.0 | 0.00 | 0.06 | 0.00 | 91 | 1014.9 |
| 20260510104047 | 73 | 61 | 0.0 | 0.0 | 0.00 | 0.06 | 0.00 | 91 | 1014.8 |
| 20260510103546 | 73 | 61 | 0.0 | 0.0 | 0.00 | 0.06 | 0.00 | 91 | 1014.6 |
| 20260510103046 | 73 | 61 | 0.0 | 0.0 | 0.00 | 0.06 | 0.00 | 91 | 1014.4 |
| 20260510102546 | 73 | 61 | 0.0 | 0.0 | 0.00 | 0.06 | 0.00 | 91 | 1014.4 |
| 20260510102045 | 73 | 61 | 0.0 | 0.0 | 0.00 | 0.06 | 0.00 | 91 | 1014.4 |
| 20260510101552 | 73 | 61 | 0.0 | 0.0 | 0.00 | 0.06 | 0.00 | 91 | 1014.4 |
| 20260510101045 | 73 | 61 | 0.0 | 0.0 | 0.00 | 0.06 | 0.00 | 91 | 1014.4 |
| 20260510100544 | 73 | 61 | 0.0 | 0.0 | 0.00 | 0.06 | 0.00 | 91 | 1014.3 |
| 20260510100052 | 73 | 61 | 0.0 | 0.0 | 0.00 | 0.07 | 0.00 | 91 | 1014.3 |
| 20260510095545 | 73 | 61 | 0.0 | 0.0 | 0.00 | 0.07 | 0.00 | 90 | 1014.2 |
| 20260510095045 | 74 | 61 | 0.0 | 0.0 | 0.00 | 0.07 | 0.00 | 90 | 1014.3 |
| 20260510094549 | 74 | 61 | 0.0 | 0.0 | 0.00 | 0.07 | 0.00 | 90 | 1014.2 |
| 20260510094043 | 73 | 61 | 0.0 | 0.0 | 0.00 | 0.07 | 0.00 | 91 | 1014.4 |
| 20260510093543 | 73 | 61 | 0.0 | 0.0 | 0.00 | 0.07 | 0.00 | 90 | 1014.3 |
| 20260510093048 | 73 | 61 | 0.0 | 0.0 | 0.00 | 0.07 | 0.00 | 90 | 1014.3 |
| 20260510092543 | 74 | 61 | 0.0 | 0.0 | 0.00 | 0.07 | 0.00 | 90 | 1014.3 |
| 20260510092042 | 73 | 61 | 0.0 | 0.0 | 0.00 | 0.07 | 0.00 | 90 | 1014.3 |
| 20260510091542 | 74 | 61 | 0.0 | 0.0 | 0.00 | 0.07 | 0.00 | 90 | 1014.1 |
| 20260510091043 | 74 | 61 | 0.0 | 0.0 | 0.00 | 0.07 | 0.00 | 90 | 1014.1 |
| 20260510090543 | 74 | 61 | 0.0 | 0.0 | 0.00 | 0.07 | 0.00 | 90 | 1014.0 |
| 20260510090042 | 74 | 61 | 0.0 | 0.0 | 0.00 | 0.07 | 0.00 | 90 | 1014.1 |
| 20260510085542 | 73 | 61 | 0.0 | 0.0 | 0.00 | 0.07 | 0.00 | 90 | 1014.0 |
| 20260510085041 | 73 | 61 | 0.0 | 0.0 | 0.00 | 0.07 | 0.00 | 90 | 1014.1 |
| 20260510084556 | 73 | 61 | 0.0 | 0.0 | 0.00 | 0.07 | 0.00 | 90 | 1014.1 |
| 20260510084041 | 73 | 61 | 0.0 | 1.0 | 0.00 | 0.07 | 0.00 | 90 | 1014.1 |
| 20260510083541 | 73 | 61 | 0.0 | 1.0 | 0.00 | 0.07 | 0.00 | 90 | 1013.9 |
| 20260510083051 | 73 | 61 | 0.0 | 1.0 | 0.00 | 0.07 | 0.00 | 90 | 1013.8 |
| 20260510082541 | 74 | 61 | 0.0 | 1.0 | 0.00 | 0.07 | 0.00 | 90 | 1013.8 |
| 20260510082039 | 74 | 61 | 0.0 | 1.0 | 0.00 | 0.07 | 0.00 | 90 | 1013.7 |
| 20260510081545 | 74 | 61 | 0.0 | 2.0 | 0.00 | 0.07 | 0.00 | 90 | 1013.9 |
| 20260510081040 | 74 | 61 | 0.0 | 2.0 | 0.00 | 0.07 | 0.00 | 90 | 1013.9 |
| 20260510080538 | 74 | 61 | 0.0 | 0.0 | 0.00 | 0.07 | 0.00 | 90 | 1013.9 |
| 20260510080044 | 74 | 61 | 0.0 | 0.0 | 0.00 | 0.07 | 0.00 | 90 | 1013.9 |
| 20260510075537 | 74 | 61 | 0.0 | 0.0 | 0.00 | 0.07 | 0.00 | 90 | 1014.0 |
| 20260510075037 | 73 | 61 | 0.0 | 0.0 | 0.00 | 0.07 | 0.00 | 90 | 1014.0 |
| 20260510074537 | 74 | 61 | 0.0 | 0.0 | 0.00 | 0.07 | 0.00 | 90 | 1013.9 |
| 20260510074036 | 74 | 61 | 0.0 | 0.0 | 0.00 | 0.07 | 0.00 | 90 | 1013.9 |
| 20260510073536 | 73 | 61 | 0.0 | 0.0 | 0.00 | 0.07 | 0.00 | 90 | 1014.0 |
| 20260510073046 | 74 | 61 | 0.0 | 0.0 | 0.00 | 0.07 | 0.00 | 90 | 1014.2 |
| 20260510072534 | 74 | 61 | 0.0 | 0.0 | 0.00 | 0.07 | 0.00 | 90 | 1014.2 |
| 20260510072036 | 74 | 61 | 0.0 | 0.0 | 0.00 | 0.07 | 0.00 | 90 | 1014.1 |
| 20260510071533 | 74 | 61 | 0.0 | 0.0 | 0.00 | 0.07 | 0.00 | 90 | 1014.2 |
| 20260510071033 | 74 | 61 | 0.0 | 0.0 | 0.00 | 0.07 | 0.00 | 90 | 1014.3 |
| 20260510070534 | 74 | 61 | 0.0 | 0.0 | 0.00 | 0.07 | 0.00 | 90 | 1014.4 |
| 20260510070036 | 74 | 61 | 0.0 | 0.0 | 0.00 | 0.07 | 0.00 | 90 | 1014.3 |
| 20260510065533 | 74 | 61 | 0.0 | 0.0 | 0.00 | 0.07 | 0.00 | 90 | 1014.3 |
| 20260510065033 | 74 | 61 | 0.0 | 0.0 | 0.00 | 0.07 | 0.00 | 90 | 1014.2 |
| 20260510064531 | 74 | 61 | 0.0 | 0.0 | 0.00 | 0.07 | 0.00 | 90 | 1014.3 |
| 20260510064031 | 74 | 61 | 0.0 | 0.0 | 0.00 | 0.07 | 0.00 | 90 | 1014.3 |
| 20260510063531 | 74 | 61 | 0.0 | 0.0 | 0.00 | 0.07 | 0.00 | 90 | 1014.3 |
| 20260510063032 | 74 | 61 | 0.0 | 0.0 | 0.00 | 0.07 | 0.00 | 90 | 1014.3 |
| 20260510062530 | 74 | 61 | 0.0 | 0.0 | 0.00 | 0.07 | 0.00 | 90 | 1014.3 |
| 20260510062029 | 74 | 61 | 0.0 | 0.0 | 0.00 | 0.07 | 0.00 | 89 | 1014.5 |
| 20260510061528 | 74 | 61 | 0.0 | 0.0 | 0.00 | 0.07 | 0.00 | 89 | 1014.6 |
| 20260510061029 | 74 | 61 | 0.0 | 0.0 | 0.00 | 0.07 | 0.00 | 90 | 1014.5 |
| 20260510060528 | 74 | 61 | 0.0 | 0.0 | 0.00 | 0.07 | 0.00 | 89 | 1014.6 |
| 20260510060036 | 74 | 61 | 0.0 | 0.0 | 0.00 | 0.07 | 0.00 | 90 | 1014.6 |
| 20260510055527 | 74 | 61 | 0.0 | 1.0 | 0.00 | 0.07 | 0.00 | 89 | 1014.5 |
| 20260510055026 | 74 | 61 | 0.0 | 1.0 | 0.00 | 0.07 | 0.00 | 89 | 1014.6 |
| 20260510054525 | 74 | 61 | 0.0 | 0.0 | 0.00 | 0.07 | 0.00 | 89 | 1014.6 |
| 20260510054023 | 74 | 61 | 0.0 | 0.0 | 0.00 | 0.07 | 0.00 | 89 | 1014.8 |
| 20260510053523 | 74 | 61 | 0.0 | 0.0 | 0.00 | 0.07 | 0.00 | 89 | 1014.8 |
| 20260510053023 | 74 | 61 | 0.0 | 0.0 | 0.00 | 0.07 | 0.00 | 89 | 1014.9 |
| 20260510052520 | 74 | 61 | 0.0 | 0.0 | 0.00 | 0.07 | 0.00 | 89 | 1015.0 |
| 20260510052020 | 74 | 61 | 0.0 | 1.0 | 0.00 | 0.07 | 0.00 | 89 | 1015.1 |
| 20260510051516 | 74 | 61 | 0.0 | 1.0 | 0.00 | 0.07 | 0.00 | 89 | 1015.1 |
| 20260510051016 | 74 | 61 | 0.0 | 1.0 | 0.00 | 0.07 | 0.00 | 89 | 1015.3 |
| 20260510050514 | 74 | 61 | 0.0 | 0.0 | 0.00 | 0.07 | 0.00 | 89 | 1015.4 |
| 20260510050016 | 74 | 61 | 0.0 | 0.0 | 0.00 | 0.07 | 0.00 | 89 | 1015.4 |
| 20260510045513 | 74 | 61 | 0.0 | 0.0 | 0.00 | 0.07 | 0.00 | 89 | 1015.5 |
| 20260510045012 | 74 | 61 | 0.0 | 0.0 | 0.00 | 0.07 | 0.00 | 89 | 1015.6 |
| 20260510044512 | 74 | 61 | 0.0 | 0.0 | 0.00 | 0.07 | 0.00 | 89 | 1015.5 |
| 20260510044010 | 74 | 61 | 0.0 | 0.0 | 0.00 | 0.07 | 0.00 | 89 | 1015.5 |
| 20260510043509 | 74 | 61 | 0.0 | 0.0 | 0.00 | 0.07 | 0.00 | 89 | 1015.5 |
| 20260510043007 | 74 | 61 | 0.0 | 1.0 | 0.00 | 0.07 | 0.00 | 88 | 1015.5 |
| 20260510042510 | 74 | 61 | 0.0 | 1.0 | 0.00 | 0.07 | 0.00 | 88 | 1015.3 |
| 20260510042005 | 75 | 61 | 0.0 | 1.0 | 0.00 | 0.07 | 0.00 | 88 | 1015.3 |
| 20260510041505 | 74 | 61 | 0.0 | 0.0 | 0.00 | 0.07 | 0.00 | 88 | 1015.2 |
| 20260510041003 | 74 | 61 | 0.0 | 0.0 | 0.00 | 0.07 | 0.00 | 88 | 1015.4 |
| 20260510040601 | 74 | 61 | 0.0 | 0.0 | 0.00 | 0.07 | 0.00 | 88 | 1015.3 |
| 20260510040107 | 75 | 61 | 0.0 | 0.0 | 0.00 | 0.07 | 0.07 | 88 | 1015.4 |
| 20260510035559 | 75 | 61 | 0.0 | 2.0 | 0.00 | 0.07 | 0.07 | 88 | 1015.3 |
| 20260510035100 | 75 | 61 | 0.0 | 2.0 | 0.00 | 0.07 | 0.07 | 88 | 1015.3 |
| 20260510034601 | 75 | 61 | 0.0 | 2.0 | 0.00 | 0.07 | 0.07 | 88 | 1015.2 |
| 20260510034059 | 75 | 61 | 0.0 | 2.0 | 0.00 | 0.07 | 0.07 | 88 | 1015.4 |
| 20260510033559 | 75 | 61 | 0.0 | 2.0 | 0.00 | 0.07 | 0.07 | 87 | 1015.4 |
| 20260510033057 | 75 | 61 | 0.0 | 1.0 | 0.00 | 0.07 | 0.07 | 87 | 1015.4 |
| 20260510032557 | 75 | 61 | 0.0 | 1.0 | 0.00 | 0.07 | 0.07 | 87 | 1015.4 |
| 20260510032100 | 75 | 61 | 0.0 | 1.0 | 0.00 | 0.07 | 0.07 | 87 | 1015.4 |
| 20260510031604 | 75 | 61 | 0.0 | 2.0 | 0.00 | 0.07 | 0.07 | 87 | 1015.3 |
| 20260510031056 | 76 | 61 | 0.0 | 1.0 | 0.00 | 0.07 | 0.07 | 87 | 1015.1 |
| 20260510030557 | 76 | 61 | 0.0 | 3.0 | 0.00 | 0.07 | 0.07 | 86 | 1015.2 |
| 20260510030058 | 76 | 61 | 0.0 | 3.0 | 0.00 | 0.09 | 0.07 | 86 | 1015.3 |
| 20260510025555 | 76 | 63 | 0.0 | 2.0 | 0.00 | 0.09 | 0.07 | 86 | 1015.2 |
| 20260510025055 | 76 | 63 | 0.0 | 2.0 | 0.00 | 0.09 | 0.07 | 85 | 1015.1 |
| 20260510024555 | 76 | 63 | 0.0 | 4.0 | 0.00 | 0.09 | 0.07 | 85 | 1015.2 |
| 20260510024054 | 76 | 88 | 2.0 | 6.0 | 0.00 | 0.09 | 0.07 | 85 | 1015.0 |
| 20260510023554 | 76 | 115 | 2.0 | 6.0 | 0.00 | 0.09 | 0.07 | 85 | 1015.0 |
| 20260510023054 | 76 | 118 | 0.0 | 4.0 | 0.00 | 0.09 | 0.07 | 85 | 1015.1 |
| 20260510022555 | 77 | 77 | 1.0 | 6.0 | 0.00 | 0.09 | 0.07 | 85 | 1015.2 |
| 20260510022055 | 77 | 80 | 1.0 | 6.0 | 0.00 | 0.09 | 0.07 | 84 | 1015.2 |
| 20260510021553 | 77 | 107 | 1.0 | 5.0 | 0.00 | 0.09 | 0.07 | 84 | 1015.2 |
| 20260510021052 | 77 | 70 | 2.0 | 5.0 | 0.00 | 0.09 | 0.07 | 84 | 1015.1 |
| 20260510020552 | 77 | 66 | 1.0 | 3.0 | 0.00 | 0.09 | 0.07 | 83 | 1015.1 |
| 20260510020052 | 77 | 87 | 1.0 | 3.0 | 0.00 | 0.73 | 0.07 | 83 | 1015.0 |
| 20260510015551 | 77 | 104 | 0.0 | 4.0 | 0.00 | 0.73 | 0.07 | 83 | 1015.0 |
| 20260510015053 | 76 | 49 | 1.0 | 4.0 | 0.00 | 0.73 | 0.07 | 83 | 1014.9 |
| 20260510014554 | 76 | 60 | 1.0 | 6.0 | 0.00 | 0.73 | 0.07 | 85 | 1014.8 |
| 20260510014051 | 76 | 35 | 2.0 | 6.0 | 0.00 | 0.73 | 0.07 | 86 | 1014.8 |
| 20260510013551 | 75 | 39 | 1.0 | 5.0 | 0.00 | 0.73 | 0.07 | 86 | 1014.8 |
| 20260510013101 | 75 | 54 | 1.0 | 3.0 | 0.00 | 0.73 | 0.07 | 86 | 1014.8 |
| 20260510012550 | 76 | 25 | 1.0 | 3.0 | 0.00 | 0.73 | 0.07 | 85 | 1014.8 |
| 20260510012050 | 76 | 27 | 0.0 | 3.0 | 0.00 | 0.73 | 0.07 | 84 | 1014.8 |
| 20260510011550 | 77 | 21 | 0.0 | 3.0 | 0.00 | 0.73 | 0.07 | 83 | 1014.7 |
| 20260510011051 | 77 | 19 | 1.0 | 4.0 | 0.00 | 0.73 | 0.07 | 82 | 1014.5 |
| 20260510010549 | 77 | 25 | 2.0 | 5.0 | 0.00 | 0.73 | 0.07 | 82 | 1014.4 |
| 20260510010050 | 77 | 58 | 2.0 | 5.0 | 0.00 | 0.73 | 0.07 | 82 | 1014.4 |
| 20260510005551 | 77 | 70 | 2.0 | 5.0 | 0.00 | 0.73 | 0.07 | 82 | 1014.3 |
| 20260510005050 | 77 | 47 | 1.0 | 5.0 | 0.00 | 0.73 | 0.07 | 82 | 1014.4 |
| 20260510004549 | 77 | 50 | 0.0 | 3.0 | 0.00 | 0.73 | 0.07 | 82 | 1014.4 |
| 20260510004049 | 78 | 63 | 1.0 | 5.0 | 0.00 | 0.73 | 0.07 | 81 | 1014.2 |
| 20260510003549 | 78 | 59 | 1.0 | 8.0 | 0.00 | 0.73 | 0.07 | 81 | 1014.0 |
| 20260510003050 | 78 | 15 | 3.0 | 8.0 | 0.00 | 0.73 | 0.07 | 82 | 1013.7 |
| 20260510002548 | 78 | 37 | 2.0 | 10.0 | 0.01 | 0.73 | 0.07 | 82 | 1013.7 |
| 20260510002048 | 78 | 48 | 3.0 | 10.0 | 0.01 | 0.73 | 0.07 | 82 | 1013.6 |
| 20260510001548 | 78 | 34 | 5.0 | 11.0 | 0.02 | 0.73 | 0.07 | 82 | 1013.6 |
| 20260510001048 | 78 | 22 | 5.0 | 11.0 | 0.03 | 0.73 | 0.07 | 83 | 1013.6 |
| 20260510000548 | 78 | 27 | 4.0 | 10.0 | 0.06 | 0.73 | 0.07 | 83 | 1013.7 |
| 20260510000048 | 78 | 75 | 4.0 | 8.0 | 0.06 | 0.73 | 0.07 | 84 | 1013.6 |
| 20260509235550 | 78 | 30 | 2.0 | 8.0 | 0.06 | 0.73 | 0.07 | 84 | 1013.5 |
| 20260509235048 | 78 | 69 | 2.0 | 8.0 | 0.06 | 0.73 | 0.07 | 84 | 1013.5 |
| 20260509234547 | 78 | 49 | 1.0 | 4.0 | 0.06 | 0.73 | 0.07 | 84 | 1013.4 |
| 20260509234050 | 78 | 75 | 1.0 | 5.0 | 0.06 | 0.73 | 0.07 | 83 | 1013.4 |
| 20260509233547 | 78 | 53 | 1.0 | 5.0 | 0.06 | 0.73 | 0.07 | 83 | 1013.3 |
| 20260509233046 | 79 | 75 | 1.0 | 5.0 | 0.06 | 0.73 | 0.07 | 82 | 1013.4 |
| 20260509232546 | 79 | 71 | 1.0 | 5.0 | 0.05 | 0.72 | 0.06 | 81 | 1013.4 |
| 20260509232046 | 80 | 52 | 2.0 | 13.0 | 0.05 | 0.72 | 0.06 | 79 | 1013.5 |
| 20260509231554 | 80 | 62 | 4.0 | 13.0 | 0.04 | 0.71 | 0.05 | 76 | 1013.6 |
| 20260509231044 | 82 | 56 | 3.0 | 13.0 | 0.03 | 0.70 | 0.04 | 73 | 1013.5 |